W5SDC Weather Reports


Display with metric or nautical units.
time (UTC)temp
F
wind
direction
speed
MPH
gust
MPH
rain 1hr
in
rain 24hr
in
rain mn
in
humidity
%
barometer
mb
20260509224020 91 109 5.0 7.0 0.00 0.00 0.00 52 1009.3
20260509223526 91 132 5.0 8.0 0.00 0.00 0.00 53 1009.1
20260509223033 92 176 3.0 6.0 0.00 0.00 0.00 55 1009.1
20260509222521 92 289 1.0 3.0 0.00 0.00 0.00 55 1009.2
20260509222028 91 109 4.0 6.0 0.00 0.00 0.00 56 1009.3
20260509221536 91 136 3.0 5.0 0.00 0.00 0.00 55 1009.3
20260509221023 92 259 2.0 3.0 0.00 0.00 0.00 54 1009.3
20260509220529 91 356 3.0 4.0 0.00 0.00 0.00 56 1009.3
20260509220017 91 302 1.0 5.0 0.00 0.00 0.00 56 1009.5
20260509215544 91 144 3.0 5.0 0.00 0.00 0.00 56 1009.5
20260509215031 91 26 3.0 4.0 0.00 0.00 0.00 56 1009.5
20260509214519 91 343 3.0 5.0 0.00 0.00 0.00 56 1009.6
20260509214026 91 193 2.0 4.0 0.00 0.00 0.00 57 1009.6
20260509213532 90 86 3.0 4.0 0.00 0.00 0.00 57 1009.7
20260509213021 90 60 3.0 5.0 0.00 0.00 0.00 58 1009.7
20260509212627 89 140 4.0 5.0 0.00 0.00 0.00 59 1009.8
20260509212036 90 136 5.0 6.0 0.00 0.00 0.00 58 1009.8
20260509211542 90 144 4.0 6.0 0.00 0.00 0.00 57 1009.8
20260509211029 89 24 5.0 8.0 0.00 0.00 0.00 57 1009.8
20260509210517 89 36 6.0 9.0 0.00 0.00 0.00 56 1009.8
20260509210024 90 103 6.0 8.0 0.00 0.00 0.00 56 1010.2
20260509205530 90 73 5.0 7.0 0.00 0.00 0.00 56 1010.2
20260509205018 89 117 4.0 7.0 0.00 0.00 0.00 56 1010.2
20260509204525 89 131 4.0 6.0 0.00 0.00 0.00 57 1010.3
20260509204031 89 137 6.0 9.0 0.00 0.00 0.00 59 1010.3
20260509203520 89 121 5.0 7.0 0.00 0.00 0.00 60 1010.5
20260509203026 88 93 4.0 7.0 0.00 0.00 0.00 58 1010.5
20260509202533 88 115 5.0 7.0 0.00 0.00 0.00 55 1010.7
20260509202041 85 144 7.0 9.0 0.00 0.00 0.00 57 1010.8
20260509201528 85 128 8.0 10.0 0.00 0.00 0.00 58 1010.8
20260509201016 87 146 6.0 13.0 0.00 0.00 0.00 63 1010.9
20260509200543 89 356 6.0 8.0 0.00 0.00 0.00 64 1010.9
20260509200030 89 20 6.0 8.0 0.00 0.00 0.00 63 1010.8
20260509195518 88 344 4.0 5.0 0.00 0.00 0.00 66 1010.8
20260509195024 89 4 4.0 7.0 0.00 0.00 0.00 64 1010.8
20260509194551 91 46 5.0 9.0 0.00 0.00 0.00 61 1010.8
20260509194040 90 67 3.0 5.0 0.00 0.00 0.00 59 1010.8
20260509193526 90 283 3.0 5.0 0.00 0.00 0.00 60 1010.9
20260509193033 89 309 4.0 8.0 0.00 0.00 0.00 60 1010.9
20260509192521 89 297 2.0 4.0 0.00 0.00 0.00 61 1010.9
20260509192027 88 313 6.0 9.0 0.00 0.00 0.00 64 1010.9
20260509191516 87 321 5.0 8.0 0.00 0.00 0.00 66 1010.9
20260509191023 89 337 6.0 7.0 0.00 0.00 0.00 65 1011.0
20260509190529 90 325 5.0 8.0 0.00 0.00 0.00 65 1011.0
20260509190017 91 284 4.0 7.0 0.00 0.00 0.00 60 1011.5
20260509185525 90 316 6.0 9.0 0.00 0.00 0.00 60 1011.5
20260509185030 89 305 2.0 5.0 0.00 0.00 0.00 64 1011.5
20260509184519 88 311 4.0 5.0 0.00 0.00 0.00 64 1011.5
20260509184025 90 258 3.0 5.0 0.00 0.00 0.00 62 1011.6
20260509183532 90 272 4.0 7.0 0.00 0.00 0.00 62 1011.7
20260509183020 88 184 1.0 3.0 0.00 0.00 0.00 65 1011.7
20260509182627 88 287 2.0 5.0 0.00 0.00 0.00 64 1011.7
20260509182015 88 277 3.0 4.0 0.00 0.00 0.00 64 1011.7
20260509181522 88 256 4.0 5.0 0.00 0.00 0.00 64 1011.9
20260509181028 87 210 3.0 5.0 0.00 0.00 0.00 66 1012.2
20260509180537 89 240 3.0 6.0 0.00 0.00 0.00 64 1012.2
20260509180023 90 301 3.0 7.0 0.00 0.00 0.00 64 1011.8
20260509175550 90 243 3.0 5.0 0.00 0.00 0.00 64 1011.8
20260509175018 89 301 3.0 9.0 0.00 0.00 0.00 67 1012.0
20260509174526 87 243 4.0 7.0 0.00 0.00 0.00 69 1012.0
20260509174051 86 289 2.0 6.0 0.00 0.00 0.00 70 1012.1
20260509173540 85 214 3.0 6.0 0.00 0.00 0.00 71 1012.4
20260509173026 85 211 3.0 5.0 0.00 0.00 0.00 72 1012.4
20260509172533 85 158 3.0 6.0 0.00 0.00 0.00 71 1012.6
20260509172021 87 226 2.0 4.0 0.00 0.00 0.00 71 1012.7
20260509171528 89 205 2.0 4.0 0.00 0.00 0.00 69 1012.7
20260509171016 87 270 2.0 5.0 0.00 0.00 0.00 71 1012.7
20260509170523 86 211 3.0 7.0 0.00 0.00 0.00 73 1012.7
20260509170050 86 204 4.0 6.0 0.00 0.00 0.00 75 1012.6
20260509165517 86 206 5.0 8.0 0.00 0.00 0.00 74 1012.6
20260509165024 87 265 4.0 7.0 0.00 0.00 0.00 75 1012.7
20260509164531 86 232 4.0 7.0 0.00 0.00 0.00 74 1012.9
20260509164059 85 251 3.0 6.0 0.00 0.00 0.00 77 1012.9
20260509163526 84 224 4.0 6.0 0.00 0.00 0.00 79 1012.9
20260509163033 84 233 4.0 7.0 0.00 0.00 0.00 79 1012.9
20260509162521 83 222 4.0 5.0 0.00 0.00 0.00 80 1012.7
20260509162027 83 214 5.0 7.0 0.00 0.00 0.00 82 1012.7
20260509161516 81 214 6.0 10.0 0.00 0.00 0.00 84 1012.7
20260509161022 81 187 8.0 11.0 0.00 0.00 0.00 84 1012.7
20260509160529 80 219 6.0 8.0 0.00 0.00 0.00 86 1012.7
20260509160018 78 199 8.0 10.0 0.00 0.00 0.00 88 1012.7
20260509155524 79 227 7.0 13.0 0.00 0.00 0.00 87 1012.7
20260509155051 79 216 6.0 9.0 0.00 0.00 0.00 87 1012.6
20260509154518 80 188 8.0 12.0 0.00 0.00 0.00 85 1012.6
20260509154025 81 198 7.0 10.0 0.00 0.00 0.00 85 1012.5
20260509153532 80 187 5.0 8.0 0.00 0.00 0.00 86 1012.4
20260509153020 80 209 7.0 10.0 0.00 0.00 0.00 86 1012.4
20260509152527 82 201 6.0 10.0 0.00 0.00 0.00 84 1012.1
20260509152033 83 196 5.0 8.0 0.00 0.00 0.00 82 1012.0
20260509151522 85 149 4.0 6.0 0.00 0.00 0.00 78 1012.0
20260509151028 87 229 6.0 10.0 0.00 0.00 0.00 75 1011.9
20260509150517 87 210 5.0 7.0 0.00 0.00 0.00 76 1011.9
20260509150023 87 212 3.0 5.0 0.00 0.00 0.00 75 1012.0
20260509145530 86 210 3.0 6.0 0.00 0.00 0.00 76 1012.0
20260509145018 87 192 4.0 8.0 0.00 0.00 0.00 76 1012.0
20260509144545 85 225 3.0 5.0 0.00 0.00 0.00 77 1012.0
20260509144111 86 216 5.0 7.0 0.00 0.00 0.00 77 1012.0
20260509143519 86 211 3.0 4.0 0.00 0.00 0.00 76 1011.8
20260509143026 87 207 2.0 4.0 0.00 0.00 0.00 76 1011.8
20260509142533 86 261 2.0 3.0 0.00 0.00 0.00 77 1011.7
20260509142021 84 188 3.0 5.0 0.00 0.00 0.00 78 1011.7
20260509141528 84 178 2.0 4.0 0.00 0.00 0.00 80 1011.5
20260509141016 82 186 3.0 5.0 0.00 0.00 0.00 83 1011.1
20260509140543 82 201 4.0 7.0 0.00 0.00 0.00 84 1011.1
20260509140029 81 197 3.0 5.0 0.00 0.00 0.00 86 1011.3
20260509135538 80 182 4.0 7.0 0.00 0.00 0.00 87 1011.3
20260509135024 80 205 4.0 6.0 0.00 0.00 0.00 88 1011.3
20260509134530 79 146 4.0 6.0 0.00 0.00 0.00 90 1011.2
20260509134019 78 180 4.0 8.0 0.00 0.00 0.00 90 1011.2
20260509133526 77 181 4.0 5.0 0.00 0.00 0.00 92 1011.4
20260509133032 76 183 4.0 7.0 0.00 0.00 0.00 94 1011.4
20260509132520 76 165 5.0 8.0 0.00 0.00 0.00 96 1011.5
20260509132027 75 210 6.0 10.0 0.00 0.00 0.00 97 1011.5
20260509131515 75 169 5.0 7.0 0.00 0.00 0.00 97 1011.5
20260509131042 74 170 6.0 9.0 0.00 0.00 0.00 99 1011.4
20260509130528 74 184 6.0 8.0 0.00 0.00 0.00 99 1011.4
20260509130037 74 158 5.0 7.0 0.00 0.00 0.00 99 1011.9
20260509125523 73 186 3.0 5.0 0.00 0.00 0.00 99 1011.9
20260509125030 73 187 2.0 3.0 0.00 0.00 0.00 99 1011.9
20260509124558 72 201 1.0 2.0 0.00 0.00 0.00 99 1011.8
20260509124045 72 223 1.0 3.0 0.00 0.00 0.00 99 1011.9
20260509123531 72 270 0.0 1.0 0.00 0.00 0.00 99 1011.9
20260509123019 71 283 2.0 4.0 0.00 0.00 0.00 99 1011.9
20260509122527 71 284 3.0 4.0 0.00 0.00 0.00 99 1011.8
20260509122033 71 268 2.0 3.0 0.00 0.00 0.00 99 1011.7
20260509121521 71 255 0.0 2.0 0.00 0.00 0.00 99 1011.9
20260509121028 71 301 1.0 2.0 0.00 0.00 0.00 99 1012.2
20260509120516 71 307 2.0 3.0 0.00 0.00 0.00 99 1012.2
20260509120023 71 334 2.0 4.0 0.00 0.00 0.00 99 1012.2
20260509115529 71 348 2.0 4.0 0.00 0.00 0.00 99 1012.2
20260509115018 71 293 0.0 2.0 0.00 0.00 0.00 99 1012.2
20260509114525 71 336 2.0 3.0 0.00 0.00 0.00 99 1012.2
20260509114031 71 34 1.0 3.0 0.00 0.00 0.00 99 1012.3
20260509113519 71 0.0 0.0 0.00 0.00 0.00 99 1012.4
20260509113026 71 203 1.0 2.0 0.00 0.00 0.00 99 1012.4
20260509112553 71 177 1.0 2.0 0.00 0.00 0.00 99 1012.8
20260509112041 71 154 1.0 3.0 0.00 0.00 0.00 99 1012.9
20260509111527 71 0.0 0.0 0.00 0.00 0.00 99 1013.0
20260509111015 71 0.0 0.0 0.00 0.00 0.00 99 1013.1
20260509110522 71 0.0 0.0 0.00 0.00 0.00 99 1013.1
20260509110029 71 0 0.0 1.0 0.00 0.00 0.00 99 1012.9
20260509105517 71 8 2.0 4.0 0.00 0.00 0.00 99 1012.9
20260509105024 71 355 4.0 5.0 0.00 0.00 0.00 99 1013.1
20260509104530 71 311 2.0 4.0 0.00 0.00 0.00 99 1013.2
20260509104039 71 309 2.0 2.0 0.00 0.00 0.00 99 1013.2
20260509103525 71 283 3.0 5.0 0.00 0.00 0.00 99 1013.2
20260509103032 71 319 4.0 6.0 0.00 0.00 0.00 99 1013.2
20260509102520 71 315 3.0 4.0 0.00 0.00 0.00 99 1013.0
20260509102027 71 317 3.0 5.0 0.00 0.00 0.00 99 1012.9
20260509101533 71 312 3.0 4.0 0.00 0.00 0.00 99 1012.7
20260509101122 71 328 3.0 4.0 0.00 0.00 0.00 99 1012.4
20260509100528 71 325 3.0 4.0 0.00 0.00 0.00 99 1012.4
20260509100016 72 324 2.0 3.0 0.00 0.00 0.00 99 1012.2
20260509095523 72 329 2.0 3.0 0.00 0.00 0.00 99 1012.2
20260509095029 72 339 3.0 3.0 0.00 0.00 0.00 99 1011.9
20260509094538 72 356 3.0 4.0 0.00 0.00 0.00 99 1011.7
20260509094024 71 16 1.0 3.0 0.00 0.00 0.00 99 1011.7
20260509093551 71 106 1.0 2.0 0.00 0.00 0.00 99 1011.5
20260509093020 71 0.0 0.0 0.00 0.00 0.00 99 1011.5
20260509092526 71 0.0 0.0 0.00 0.00 0.00 99 1011.4
20260509092053 71 0.0 0.0 0.00 0.00 0.00 99 1011.3
20260509091521 72 288 0.0 2.0 0.00 0.00 0.00 99 1011.3
20260509091048 72 30 1.0 2.0 0.00 0.00 0.00 99 1011.3
20260509090516 72 348 1.0 4.0 0.00 0.00 0.00 99 1011.3
20260509090023 72 24 2.0 3.0 0.00 0.00 0.00 99 1011.7
20260509085529 72 44 1.0 3.0 0.00 0.00 0.00 99 1011.7
20260509085018 72 348 1.0 3.0 0.00 0.00 0.00 99 1011.7
20260509084524 72 359 3.0 4.0 0.00 0.00 0.00 99 1011.7
20260509084031 72 323 2.0 3.0 0.00 0.00 0.00 99 1011.7
20260509083519 72 332 1.0 3.0 0.00 0.00 0.00 99 1011.9
20260509083026 72 0.0 0.0 0.00 0.00 0.00 99 1011.9
20260509082532 72 338 0.0 2.0 0.00 0.00 0.00 99 1011.9
20260509082020 72 321 1.0 3.0 0.00 0.00 0.00 99 1011.9
20260509081527 72 320 2.0 3.0 0.00 0.00 0.00 99 1012.0
20260509081036 72 312 1.0 2.0 0.00 0.00 0.00 99 1012.2
20260509080522 72 0.0 0.0 0.00 0.00 0.00 99 1012.2
20260509080029 72 0.0 0.0 0.00 0.00 0.00 99 1012.2
20260509075517 72 132 1.0 3.0 0.00 0.00 0.00 99 1012.2
20260509075044 72 131 1.0 2.0 0.00 0.00 0.00 99 1012.0
20260509074531 72 69 0.0 2.0 0.00 0.00 0.00 99 1011.9
20260509074018 72 356 1.0 3.0 0.00 0.00 0.00 99 1012.0
20260509073525 72 0.0 0.0 0.00 0.00 0.00 99 1012.2
20260509073052 72 0.0 0.0 0.00 0.00 0.00 99 1012.2
20260509072520 72 0.0 0.0 0.00 0.00 0.00 99 1012.3
20260509072027 72 0.0 0.0 0.00 0.00 0.00 99 1012.4
20260509071535 72 0.0 0.0 0.00 0.00 0.00 99 1012.4
20260509071022 72 0.0 0.0 0.00 0.00 0.00 99 1012.4
20260509070528 72 0.0 0.0 0.00 0.00 0.00 99 1012.4
20260509070017 72 0.0 0.0 0.00 0.00 0.00 99 1012.2
20260509065523 72 0.0 0.0 0.00 0.00 0.00 99 1012.2
20260509065030 72 270 0.0 1.0 0.00 0.00 0.00 99 1012.2
20260509064518 72 274 2.0 4.0 0.00 0.00 0.00 99 1012.2
20260509064025 72 335 1.0 3.0 0.00 0.00 0.00 99 1012.2
20260509063531 72 0.0 0.0 0.00 0.00 0.00 99 1012.2
20260509063020 72 0.0 0.0 0.00 0.00 0.00 99 1012.2
20260509062526 72 284 1.0 2.0 0.00 0.00 0.00 99 1012.1
20260509062033 72 203 1.0 3.0 0.00 0.00 0.00 99 1012.0
20260509061521 72 199 0.0 3.0 0.00 0.00 0.00 99 1011.9
20260509061028 72 145 1.0 3.0 0.00 0.00 0.00 99 1011.7
20260509060516 72 168 3.0 5.0 0.00 0.00 0.00 99 1011.7
20260509060023 72 186 4.0 6.0 0.00 0.00 0.00 99 1011.7
20260509055529 72 179 4.0 5.0 0.00 0.00 0.00 99 1011.7
20260509055018 72 192 5.0 7.0 0.00 0.00 0.00 99 1011.7
20260509054524 72 197 2.0 4.0 0.00 0.00 0.00 99 1011.7
20260509054031 71 211 2.0 4.0 0.00 0.00 0.00 99 1011.5
20260509053519 71 190 3.0 4.0 0.00 0.00 0.00 99 1010.8
20260509053046 71 202 3.0 5.0 0.00 0.00 0.00 99 1010.8
20260509052532 71 171 3.0 5.0 0.00 0.00 0.00 99 1010.7
20260509052041 71 159 4.0 7.0 0.00 0.00 0.00 99 1010.6
20260509051527 71 137 4.0 6.0 0.00 0.00 0.00 99 1010.6
20260509051016 71 160 4.0 5.0 0.00 0.00 0.00 99 1010.7
20260509050522 71 161 3.0 5.0 0.00 0.00 0.00 99 1010.7
20260509050029 71 148 3.0 4.0 0.00 0.00 0.00 99 1010.7
20260509045537 71 168 3.0 5.0 0.00 0.00 0.00 99 1010.7
20260509045024 71 156 3.0 4.0 0.00 0.00 0.00 99 1010.9
20260509044530 71 173 1.0 2.0 0.00 0.00 0.00 99 1011.0
20260509044019 71 158 0.0 2.0 0.00 0.00 0.00 99 1011.1
20260509043525 71 0.0 0.0 0.00 0.00 0.00 98 1011.2
20260509043032 71 173 1.0 3.0 0.00 0.00 0.00 98 1011.2
20260509042540 72 173 1.0 3.0 0.00 0.00 0.00 97 1011.3
20260509042027 72 186 2.0 4.0 0.00 0.00 0.00 97 1011.3
20260509041534 72 141 3.0 3.0 0.00 0.00 0.00 97 1011.4
20260509041022 72 172 2.0 3.0 0.00 0.00 0.00 97 1011.4
20260509040528 72 170 3.0 4.0 0.00 0.00 0.00 96 1011.4
20260509040037 72 184 2.0 5.0 0.00 0.00 0.00 96 1011.3
20260509035523 72 179 3.0 4.0 0.00 0.00 0.00 96 1011.3
20260509035050 72 184 1.0 4.0 0.00 0.00 0.00 96 1011.2
20260509034538 72 162 1.0 3.0 0.00 0.00 0.00 96 1011.1
20260509034025 72 169 3.0 5.0 0.00 0.00 0.00 96 1011.1
20260509033531 72 182 3.0 5.0 0.00 0.00 0.00 96 1010.9
20260509033019 73 154 3.0 5.0 0.00 0.00 0.00 95 1010.9
20260509032546 73 192 4.0 5.0 0.00 0.00 0.00 95 1010.9
20260509032033 73 182 3.0 5.0 0.00 0.00 0.00 95 1010.9
20260509031521 73 176 3.0 5.0 0.00 0.00 0.00 95 1010.9
20260509031028 73 170 3.0 4.0 0.00 0.00 0.00 95 1010.9
20260509030516 73 176 3.0 5.0 0.00 0.00 0.00 94 1010.9
20260509030023 73 179 4.0 6.0 0.00 0.00 0.00 94 1010.8
20260509025529 74 175 3.0 5.0 0.00 0.00 0.00 93 1010.8
20260509025018 74 166 5.0 7.0 0.00 0.00 0.00 93 1010.7
20260509024545 74 177 4.0 6.0 0.00 0.00 0.00 93 1010.7
20260509024031 74 132 3.0 5.0 0.00 0.00 0.00 92 1010.7
20260509023519 74 159 3.0 5.0 0.00 0.00 0.00 92 1010.6
20260509023026 74 150 4.0 5.0 0.00 0.00 0.00 92 1010.6
20260509022532 74 170 4.0 6.0 0.00 0.00 0.00 92 1010.4
20260509022021 74 173 3.0 4.0 0.00 0.00 0.00 91 1010.3
20260509021527 75 158 3.0 5.0 0.00 0.00 0.00 91 1010.2
20260509021016 75 167 2.0 4.0 0.00 0.00 0.00 90 1010.2
20260509020523 75 169 3.0 4.0 0.00 0.00 0.00 90 1010.2
20260509020029 75 159 4.0 6.0 0.00 0.00 0.00 90 1010.1
20260509015517 75 156 4.0 7.0 0.00 0.00 0.00 89 1010.1
20260509015024 76 183 5.0 6.0 0.00 0.00 0.00 89 1009.9
20260509014530 76 151 5.0 7.0 0.00 0.00 0.00 88 1009.8
20260509014019 76 155 4.0 6.0 0.00 0.00 0.00 88 1009.8
20260509013525 76 147 2.0 5.0 0.00 0.00 0.00 87 1009.8
20260509013032 76 196 4.0 7.0 0.00 0.00 0.00 87 1009.8
20260509012520 76 182 4.0 8.0 0.00 0.00 0.00 86 1009.7
20260509012027 77 170 5.0 7.0 0.00 0.00 0.00 86 1009.7
20260509011516 77 136 6.0 9.0 0.00 0.00 0.00 85 1009.7
20260509011022 77 135 6.0 8.0 0.00 0.00 0.00 85 1009.8
20260509010529 77 140 5.0 7.0 0.00 0.00 0.00 84 1009.8
20260509010017 77 160 4.0 5.0 0.00 0.00 0.00 84 1009.8
20260509005524 77 162 5.0 8.0 0.00 0.00 0.00 84 1009.8
20260509005030 77 155 5.0 7.0 0.00 0.00 0.00 84 1009.8
20260509004519 77 162 6.0 8.0 0.00 0.00 0.00 84 1009.8
20260509004025 77 164 5.0 8.0 0.00 0.00 0.00 84 1009.8
20260509003532 78 148 3.0 5.0 0.00 0.00 0.00 84 1009.8
20260509003020 78 159 4.0 7.0 0.00 0.00 0.00 83 1009.8
20260509002547 78 168 5.0 7.0 0.00 0.00 0.00 83 1009.8
20260509002033 78 178 5.0 6.0 0.00 0.00 0.00 83 1009.8
20260509001602 78 162 3.0 5.0 0.00 0.00 0.00 83 1009.9
20260509001028 78 152 4.0 8.0 0.00 0.00 0.00 83 1010.0
20260509000517 78 151 3.0 4.0 0.00 0.00 0.00 83 1010.0
20260509000043 78 166 4.0 6.0 0.00 0.00 0.00 83 1010.0
20260508235530 78 153 5.0 7.0 0.00 0.00 0.00 83 1010.0
20260508235018 78 181 4.0 6.0 0.00 0.00 0.00 83 1010.0
20260508234524 78 170 5.0 6.0 0.00 0.00 0.00 82 1010.0
20260508234031 78 180 5.0 7.0 0.00 0.00 0.00 82 1010.0
20260508233520 78 154 5.0 6.0 0.00 0.00 0.00 81 1009.8
20260508233026 78 168 5.0 6.0 0.00 0.00 0.00 81 1009.8
20260508232532 79 168 4.0 7.0 0.00 0.00 0.00 81 1009.8
20260508232021 79 157 4.0 5.0 0.00 0.00 0.00 81 1009.8
20260508231528 79 167 5.0 6.0 0.00 0.00 0.00 81 1009.8
20260508231016 79 123 5.0 7.0 0.00 0.00 0.00 80 1009.8
20260508230522 79 111 5.0 6.0 0.00 0.00 0.00 80 1009.8
20260508230109 79 146 5.0 7.0 0.00 0.00 0.00 80 1009.8
20260508225537 79 153 5.0 8.0 0.00 0.00 0.00 80 1009.8
20260508225024 80 146 5.0 7.0 0.00 0.00 0.00 79 1009.8
20260508224531 80 156 4.0 6.0 0.00 0.00 0.00 79 1009.8